GLOBALSTAR M091 [+]

Last updated on Thu Dec 28 2023 00:02:58 GMT+0000 (Coordinated Universal Time)

1 37741U 11033C 23361.50868240 -.00000114 00000+0 -56062-4 0 9998 2 37741 51.9999 110.0616 0001047 115.8377 325.0870 12.62269872575282

Satellite not in orbit

GLOBALSTAR M091 [+]